Weather History for Lubbock, TX

Change the Weather History Date:

Sunday, February 12, 2012

  Actual Average Record
Temperature  
Mean Temperature 22 °F 44 °F  
Max Temperature 26 °F 58 °F 86 °F (1962)
Min Temperature 18 °F 29 °F 9 °F (1948)
Degree Days  
Heating Degree Days 43 21  
Month to date heating degree days 322 267  
Since 1 July heating degree days 2362 2432  
Cooling Degree Days 0 0  
Month to date cooling degree days 0 0  
Year to date cooling degree days 0 0  
Moisture  
Dew Point 16 °F    
Average Humidity 75    
Maximum Humidity 96    
Minimum Humidity 54    
Precipitation  
Precipitation 0.31 in 0.02 in 0.48 in (1928)
Month to date precipitation 0.33 0.32  
Year to date precipitation 0.34 0.97  
Snow  
Snow 2.80 in 0.10 in - ()
Month to date snowfall 2.8 0.9  
Since 1 July snowfall 6.8 6.7  
Snow Depth 3.00 in    
Sea Level Pressure  
Sea Level Pressure 30.23 in    
Wind  
Wind Speed 11 mph (SSE)    
Max Wind Speed 17 mph    
Max Gust Speed 21 mph    
Visibility 4 miles    
Events Fog , Snow    
T = Trace of Precipitation, MM = Missing Value Source: NWS Daily Summary

Daily Weather History Graph

Daily Weather History Graph

Search for Another Location

Airport:

Trip Planner

Search our weather history database for the weather conditions in past years. The results will help you decide how hot, cold, wet, or windy it might be!

Date:

Astronomy

Feb. 12, 2012 Rise Set
Actual Time 7:34 AM CST 6:28 PM CST
Civil Twilight 7:09 AM CST 6:54 PM CST
Nautical Twilight 6:40 AM CST 7:23 PM CST
Astronomical Twilight 6:10 AM CST 7:52 PM CST
Moon No Moon Rise 10:14 AM CST (2/12)
Length of Visible Light 11h 44m
Length of Day
10h 53m
Waning Gibbous, 72% of the Moon is Illuminated
Feb 12
Waning Gibbous
Feb 14
Last Quarter
Feb 21
New
Feb 29
First Quarter
Mar 8
Full

Hourly Weather History & Observations

Time (CST) Temp. Windchill Dew Point Humidity Pressure Visibility Wind Dir Wind Speed Gust Speed Precip Events Conditions
12:53 AM 21.9 °F 8.7 °F 9.0 °F 58% 30.48 in 10.0 mi ESE 15.0 mph - N/A   Overcast
1:53 AM 21.9 °F 9.8 °F 9.0 °F 58% 30.48 in 10.0 mi ESE 12.7 mph - N/A   Overcast
2:53 AM 21.0 °F 9.3 °F 10.0 °F 63% 30.47 in 10.0 mi ESE 11.5 mph - N/A   Overcast
3:53 AM 19.9 °F 9.3 °F 10.9 °F 68% 30.45 in 10.0 mi ESE 9.2 mph - N/A   Overcast
4:53 AM 19.9 °F 9.3 °F 10.9 °F 68% 30.43 in 10.0 mi ESE 9.2 mph - N/A   Overcast
5:53 AM 19.9 °F 7.9 °F 10.9 °F 68% 30.43 in 10.0 mi ESE 11.5 mph - N/A   Overcast
6:53 AM 19.9 °F 5.7 °F 9.0 °F 62% 30.41 in 10.0 mi ESE 16.1 mph - N/A   Overcast
7:40 AM 19.4 °F 5.0 °F 8.6 °F 63% 30.33 in 9.0 mi SE 16.1 mph - 0.00 in Snow Light Snow
7:53 AM 19.9 °F 7.3 °F 9.0 °F 62% 30.39 in 9.0 mi ESE 12.7 mph - 0.00 in Snow Light Snow
8:28 AM 19.4 °F 7.2 °F 10.4 °F 68% 30.33 in 1.5 mi SE 11.5 mph - 0.01 in Snow Light Snow
8:41 AM 19.4 °F 7.2 °F 10.4 °F 68% 30.33 in 2.5 mi SE 11.5 mph - 0.02 in Snow Light Snow
8:50 AM 19.4 °F 8.6 °F 10.4 °F 68% 30.34 in 3.0 mi SE 9.2 mph - 0.02 in Snow Light Snow
8:53 AM 19.0 °F 7.5 °F 10.9 °F 71% 30.42 in 5.0 mi SSE 10.4 mph - 0.02 in Snow Light Snow
9:10 AM 19.4 °F 7.9 °F 10.4 °F 68% 30.34 in 2.5 mi SE 10.4 mph - 0.00 in Snow Light Snow
9:25 AM 19.4 °F 10.4 °F 12.2 °F 74% 30.34 in 4.0 mi SSE 6.9 mph - 0.01 in Snow Light Snow
9:36 AM 19.4 °F 8.6 °F 12.2 °F 74% 30.34 in 2.5 mi SSE 9.2 mph - 0.01 in Snow Light Snow
9:41 AM 19.4 °F 7.9 °F 12.2 °F 74% 30.33 in 0.8 mi SSE 10.4 mph - 0.01 in Snow Light Snow
9:49 AM 17.6 °F 7.3 °F 14.0 °F 86% 30.33 in 0.2 mi SE 8.1 mph - 0.02 in Fog , Snow Heavy Snow
9:50 AM 18.0 °F 7.7 °F 14.0 °F 84% 30.41 in 0.2 mi SE 8.1 mph - 0.02 in Fog , Snow Heavy Snow
9:53 AM 18.0 °F 7.7 °F 14.0 °F 84% 30.41 in 0.2 mi SE 8.1 mph - 0.02 in Fog , Snow Heavy Snow
10:05 AM 17.6 °F 8.2 °F 15.8 °F 93% 30.34 in 3.0 mi SSE 6.9 mph - 0.01 in Snow Light Snow
10:11 AM 17.6 °F 6.4 °F 15.8 °F 93% 30.33 in 2.0 mi SSE 9.2 mph - 0.01 in Snow Light Snow
10:19 AM 17.6 °F 7.3 °F 15.8 °F 93% 30.33 in 1.8 mi SE 8.1 mph - 0.02 in Snow Light Snow
10:38 AM 17.6 °F 5.7 °F 14.0 °F 86% 30.32 in 2.0 mi SE 10.4 mph - 0.03 in   Overcast
10:48 AM 17.6 °F 5.7 °F 14.0 °F 86% 30.32 in 5.0 mi SSE 10.4 mph - 0.03 in   Overcast
10:53 AM 18.0 °F 6.1 °F 14.0 °F 84% 30.40 in 5.0 mi SSE 10.4 mph - 0.03 in   Overcast
10:59 AM 17.6 °F 5.0 °F 14.0 °F 86% 30.32 in 1.8 mi SE 11.5 mph - 0.00 in Snow Light Snow
11:21 AM 19.4 °F 7.2 °F 14.0 °F 80% 30.31 in 2.5 mi SSE 11.5 mph - 0.01 in Snow Light Snow
11:33 AM 19.4 °F 6.6 °F 14.0 °F 80% 30.30 in 5.0 mi SSE 12.7 mph - 0.01 in   Overcast
11:48 AM 19.4 °F 6.0 °F 15.8 °F 86% 30.30 in 8.0 mi SSE 13.8 mph - 0.01 in Snow Light Snow
11:53 AM 19.9 °F 7.3 °F 14.0 °F 78% 30.37 in 9.0 mi SSE 12.7 mph - 0.01 in   Overcast
12:15 PM 19.4 °F 6.0 °F 15.8 °F 86% 30.27 in 4.0 mi SSE 13.8 mph - 0.00 in Snow Light Snow
12:38 PM 19.4 °F 7.9 °F 15.8 °F 86% 30.25 in 2.5 mi SSE 10.4 mph - 0.00 in Snow Light Snow
12:42 PM 19.4 °F 7.9 °F 15.8 °F 86% 30.25 in 0.5 mi South 10.4 mph - 0.00 in Fog , Snow Snow
12:47 PM 19.4 °F 7.2 °F 15.8 °F 86% 30.24 in 0.2 mi SSE 11.5 mph - 0.01 in Fog , Snow Heavy Snow
12:53 PM 19.0 °F 6.8 °F 17.1 °F 92% 30.32 in 0.2 mi SSE 11.5 mph - 0.02 in Fog , Snow Heavy Snow
12:59 PM 19.4 °F 7.2 °F 15.8 °F 86% 30.23 in 2.0 mi SSE 11.5 mph - 0.01 in Snow Light Snow
1:21 PM 19.4 °F 7.9 °F 15.8 °F 86% 30.22 in 1.0 mi SSE 10.4 mph - 0.01 in Snow Light Snow
1:26 PM 19.4 °F 7.2 °F 17.6 °F 93% 30.21 in 0.2 mi South 11.5 mph - 0.02 in Fog , Snow Heavy Snow
1:33 PM 19.4 °F 7.9 °F 17.6 °F 93% 30.20 in 0.8 mi South 10.4 mph - 0.03 in Snow Light Snow
1:42 PM 19.4 °F 7.9 °F 17.6 °F 93% 30.19 in 2.0 mi SSE 10.4 mph - 0.03 in Snow Light Snow
1:53 PM 21.0 °F 9.9 °F 17.1 °F 85% 30.26 in 2.5 mi SSE 10.4 mph - 0.03 in Snow Light Snow
2:03 PM 21.2 °F 9.5 °F 17.6 °F 86% 30.18 in 1.0 mi SSE 11.5 mph - 0.00 in Snow Light Snow
2:21 PM 21.2 °F 10.9 °F 17.6 °F 86% 30.17 in 0.8 mi South 9.2 mph - 0.01 in Snow Light Snow
2:31 PM 21.2 °F 9.5 °F 17.6 °F 86% 30.16 in 0.2 mi SSE 11.5 mph - 0.02 in Fog , Snow Heavy Snow
2:53 PM 21.0 °F 9.3 °F 18.0 °F 88% 30.22 in 0.2 mi South 11.5 mph - 0.05 in Fog , Snow Snow
2:57 PM 21.2 °F 10.1 °F 17.6 °F 86% 30.14 in 0.5 mi South 10.4 mph - 0.00 in Fog , Snow Light Snow
3:03 PM 21.2 °F 10.9 °F 17.6 °F 86% 30.14 in 2.0 mi South 9.2 mph - 0.00 in Snow Light Snow
3:08 PM 21.2 °F 10.1 °F 17.6 °F 86% 30.14 in 5.0 mi South 10.4 mph - 0.00 in   Overcast
3:42 PM 21.2 °F 9.5 °F 17.6 °F 86% 30.13 in 3.0 mi South 11.5 mph - 0.00 in Snow Light Snow
3:53 PM 21.0 °F 9.3 °F 18.0 °F 88% 30.20 in 3.0 mi South 11.5 mph - 0.00 in Snow Light Snow
3:57 PM 21.2 °F 9.5 °F 17.6 °F 86% 30.12 in 2.0 mi SSE 11.5 mph - 0.00 in Snow Light Snow
4:05 PM 21.2 °F 10.9 °F 17.6 °F 86% 30.12 in 1.0 mi South 9.2 mph - 0.00 in Snow Light Snow
4:12 PM 21.2 °F 10.9 °F 17.6 °F 86% 30.11 in 0.5 mi SSE 9.2 mph - 0.01 in Fog , Snow Snow
4:28 PM 21.2 °F 11.7 °F 17.6 °F 86% 30.10 in 0.8 mi SSE 8.1 mph - 0.02 in Snow Light Snow
4:36 PM 21.2 °F 10.9 °F 17.6 °F 86% 30.10 in 1.0 mi SSE 9.2 mph - 0.03 in Snow Light Snow
4:53 PM 21.0 °F 9.3 °F 18.0 °F 88% 30.17 in 0.5 mi SSE 11.5 mph - 0.04 in Fog , Snow Snow
5:27 PM 21.2 °F 11.7 °F 19.4 °F 93% 30.07 in 1.0 mi SSE 8.1 mph - 0.06 in Snow Light Snow
5:36 PM 21.2 °F 11.7 °F 19.4 °F 93% 30.07 in 1.5 mi SSE 8.1 mph - 0.07 in Snow Light Snow
5:46 PM 21.2 °F 10.9 °F 19.4 °F 93% 30.07 in 1.5 mi SSE 9.2 mph - 0.07 in Snow Light Snow
5:53 PM 21.0 °F 11.4 °F 19.0 °F 92% 30.14 in 1.5 mi SSE 8.1 mph - 0.08 in Snow Light Snow
6:02 PM 21.2 °F 11.7 °F 19.4 °F 93% 30.06 in 4.0 mi SSE 8.1 mph - 0.00 in   Light Ice Pellets
6:14 PM 21.2 °F 10.9 °F 19.4 °F 93% 30.05 in 4.0 mi SE 9.2 mph - 0.01 in   Light Ice Pellets
6:38 PM 21.2 °F 11.7 °F 19.4 °F 93% 30.06 in 6.0 mi SE 8.1 mph - 0.01 in   Overcast
6:53 PM 21.9 °F 13.4 °F 19.0 °F 89% 30.13 in 10.0 mi SSE 6.9 mph - 0.01 in   Overcast
7:53 PM 21.9 °F 11.0 °F 19.9 °F 92% 30.11 in 10.0 mi SSE 10.4 mph - 0.00 in   Overcast
8:53 PM 23.0 °F 11.7 °F 21.9 °F 96% 30.13 in 2.0 mi South 11.5 mph - 0.00 in   Light Freezing Drizzle
9:02 PM 23.0 °F 13.1 °F 21.2 °F 93% 30.04 in 1.8 mi SSE 9.2 mph - 0.00 in   Light Freezing Drizzle
9:08 PM 23.0 °F 13.1 °F 21.2 °F 93% 30.04 in 1.5 mi SSE 9.2 mph - 0.00 in   Light Freezing Drizzle
9:18 PM 23.0 °F 10.6 °F 21.2 °F 93% 30.02 in 4.0 mi SSE 13.8 mph - 0.00 in   Light Freezing Drizzle
9:46 PM 24.8 °F 12.9 °F 21.2 °F 86% 29.99 in 5.0 mi SE 13.8 mph - 0.00 in   Overcast
9:53 PM 24.1 °F 13.1 °F 21.9 °F 91% 30.07 in 3.0 mi SSE 11.5 mph - 0.00 in Snow Light Snow
10:53 PM 24.1 °F 14.4 °F 23.0 °F 96% 30.06 in 8.0 mi South 9.2 mph - 0.00 in   Overcast
11:53 PM 25.0 °F 11.7 °F 23.0 °F 92% 30.01 in 9.0 mi South 17.3 mph - N/A   Overcast